Location: Barcelona
(41.3830°N, 2.1830°E)
Time: 12:47:56
(UTC+01:00)

ISS - Pass Details

Date: 16 March 2019
Orbit: 408 x 411 km, 51.6° (Epoch: 24 March)

Event Time Altitude Azimuth Distance (km) Brightness Sun altitude
Exits shadow 06:20:52 12° 271° (W) 1,361 -1.8 -8.6°
Maximum altitude 06:22:58 20° 227° (SW) 1,021 -2.2 -8.2°
Drops below altitude 10° 06:25:25 10° 179° (S) 1,463 -1.0 -7.7°
Sets 06:27:51 0° 161° (SSE) 2,319 0.2 -7.3°
